TimeEET,TemperatureF,Dew PointF,Humidity,Sea Level PressureIn,VisibilityMPH,Wind Direction,Wind SpeedMPH,Gust SpeedMPH,PrecipitationIn,Events,Conditions,WindDirDegrees,DateUTC
12:00 AM,77.0,59.0,54,29.80,-9999.0,Variable,2.3,-,N/A,,Clear,0,2012-10-09 22:00:00
1:00 AM,75.2,64.4,69,29.77,-9999.0,North,3.5,-,N/A,,Clear,360,2012-10-09 23:00:00
2:00 AM,77.0,60.8,57,29.77,-9999.0,North,11.5,-,N/A,,Clear,360,2012-10-10 00:00:00
3:00 AM,77.0,59.0,54,29.77,-9999.0,North,11.5,-,N/A,,Clear,360,2012-10-10 01:00:00
4:00 AM,77.0,60.8,57,29.80,-9999.0,North,5.8,-,N/A,,Clear,350,2012-10-10 02:00:00
5:00 AM,75.2,60.8,61,29.80,-9999.0,North,8.1,-,N/A,,Clear,360,2012-10-10 03:00:00
6:00 AM,75.2,60.8,61,29.80,-9999.0,North,8.1,-,N/A,,Clear,360,2012-10-10 04:00:00
7:00 AM,78.8,62.6,57,29.80,-9999.0,North,11.5,-,N/A,,Clear,360,2012-10-10 05:00:00
8:00 AM,82.4,60.8,48,29.83,-9999.0,North,12.7,-,N/A,,Clear,10,2012-10-10 06:00:00
9:00 AM,86.0,59.0,40,29.83,-9999.0,NNE,10.4,-,N/A,,Clear,20,2012-10-10 07:00:00
10:00 AM,87.8,59.0,38,29.83,-9999.0,NNE,8.1,-,N/A,,Clear,30,2012-10-10 08:00:00
11:00 AM,91.4,55.4,29,29.80,-9999.0,NE,8.1,-,N/A,,Clear,50,2012-10-10 09:00:00
12:00 PM,95.0,53.6,25,29.80,-9999.0,ENE,5.8,-,N/A,,Clear,60,2012-10-10 10:00:00
1:00 PM,95.0,53.6,25,29.77,-9999.0,SSE,4.6,-,N/A,,Clear,150,2012-10-10 11:00:00
3:00 PM,93.2,57.2,30,29.74,-9999.0,ESE,4.6,-,N/A,,Clear,110,2012-10-10 13:00:00
4:00 PM,89.6,59.0,36,29.74,-9999.0,ESE,8.1,-,N/A,,Clear,120,2012-10-10 14:00:00
5:00 PM,87.8,60.8,40,29.74,-9999.0,SSE,8.1,-,N/A,,Clear,150,2012-10-10 15:00:00
6:00 PM,82.4,64.4,54,29.77,-9999.0,SE,4.6,-,N/A,,Clear,140,2012-10-10 16:00:00
7:00 PM,82.4,64.4,54,29.80,-9999.0,South,5.8,-,N/A,,Clear,170,2012-10-10 17:00:00
8:00 PM,80.6,66.2,61,29.80,-9999.0,South,8.1,-,N/A,,Clear,170,2012-10-10 18:00:00
9:00 PM,82.4,64.4,54,29.80,-9999.0,North,-9999.0,-,N/A,,Clear,0,2012-10-10 19:00:00
10:00 PM,77.0,62.6,61,29.80,-9999.0,NNE,6.9,-,N/A,,Clear,20,2012-10-10 20:00:00
11:00 PM,77.0,64.4,65,29.80,-9999.0,North,6.9,-,N/A,,Clear,350,2012-10-10 21:00:00